COSMOS 1228

Satellite information

Favourite Embed

Satellite Type and Status

PAYLOADIN ORBIT

Key statistics

Satellite COSMOS 1228 at a glance.

Uptime

16433

Days in orbit

Revolutions

≈ 12.6

Per day

Orbit

LEO

Low Earth Orbit

Inclination

74.0

Latest

Satellite identification and parameters

Extended collection of information and parameters for COSMOS 1228.

Object identification

Identified? True

Debris? False

Object name: COSMOS 1228

International designator: 1980-102A

Object number (NORAD): 12107

Object ID (CCSDS): 12107

Country: COMMONWEALTH OF INDEPENDENT STATES (CIS)

Current information (Y/N): Y

RCS size: MEDIUM

Orbital parameters

Period: 114.409 minutes

Inclination: 73.994 deg

SMA: 7806.67 km

Apoapsis: 1464.437 km

Periapsis: 1392.633 km

RAAN: 171.0398 deg

Eccentricy: 0.00459886

Argument of periapsis: 253.1406 deg

Mean anomaly: 214.7472 deg

Mean motion: 12.58647192 rev/day

Mean motion (dot): -0.00000018 rev/day2

B* drag term: -0.000009667075 1/REarth

Two-line elements (TLE)

Creation date: Dec. 20, 2025, 3:40 a.m.

Reference frame: TEME

Reference center: EARTH

Epoch: Dec. 19, 2025, 8:14 p.m. UTC

TLE line 0: 0 COSMOS 1228

TLE line 1: 1 12107U 80102A 25353.84335660 -.00000018 00000-0 -96671-5 0 9990

TLE line 2: 2 12107 73.9940 171.0398 0045989 253.1406 214.7472 12.58647192 67050

Live tracking on map

Real-time ground track for satellite COSMOS 1228.

In-orbit conjunctions

A list of the most updated potential collisions computed for object COSMOS 1228.

Target Orbit TCA Probability of collision Miss distance Type
FENGYUN 1C DEB SSO 2024-10-21 07:35:27 0.0001475685 780.0 (m) DEBRIS

Associated space launch

Military communications satellites

COSMOS 1228 was lifted into orbit during the mission ‘Kosmos-3M | Strela-1M 201-208’, on board a Kosmos-3M space rocket.

The launch took place on Dec. 23, 1980, 10:48 p.m. from 132/1 (132L).

For more information about the launch, click the button.

Launch to space Kosmos-3M | Strela-1M 201-208
Kosmos-3M | Strela-1M 201-208

Agency: N/A

Status: Launch Successful

Launch date: Dec. 23, 1980, 10:48 p.m. UTC

Rocket: Kosmos-3M

Launch pad: 132/1 (132L)

Location: Plesetsk Cosmodrome, Russian Federation

...

Latest news about this satellite

There are no fresh news available about this satellite. Check back as we update our databases every day.


Newsletter sign-up

Weekly statistics, charts and insights to help you stay on top of the space industry.